Weather History for Osceola, WI

Change the Weather History Date:

Thursday, March 27, 2014

  Actual Average (KMSP) Record (KMSP)
Temperature  
Mean Temperature 34 °F 38 °F  
Max Temperature 39 °F 47 °F 75 °F (1946)
Min Temperature 30 °F 29 °F 5 °F (1921)
Degree Days  
Heating Degree Days 30 27  
Month to date heating degree days 895  
Since 1 July heating degree days 6685  
Cooling Degree Days 0 0  
Month to date cooling degree days 0  
Year to date cooling degree days 0  
Moisture  
Dew Point 34 °F    
Average Humidity 94    
Maximum Humidity 100    
Minimum Humidity 59    
Precipitation  
Precipitation 0.17 in 0.07 in 1.52 in (1998)
Month to date precipitation 1.61  
Year to date precipitation 3.28  
Snow  
Snow 0.00 in 0.20 in 5.60 in (1965)
Month to date snowfall 9.5  
Since 1 July snowfall 51.2  
Snow Depth -    
Sea Level Pressure  
Sea Level Pressure 29.58 in    
Wind  
Wind Speed 11 mph (ESE)    
Max Wind Speed 17 mph    
Max Gust Speed 24 mph    
Visibility 5 miles    
Events Rain , Snow    
T = Trace of Precipitation, MM = Missing Value Source: NWS Daily Summary

Daily Weather History Graph

Daily Weather History Graph

Search for Another Location

Airport:

Trip Planner

Search our weather history database for the weather conditions in past years. The results will help you decide how hot, cold, wet, or windy it might be!

Date:

Astronomy

Mar. 27, 2014 Rise Set
Actual Time 7:00 AM CDT 7:32 PM CDT
Civil Twilight 6:30 AM CDT 8:02 PM CDT
Nautical Twilight 5:55 AM CDT 8:37 PM CDT
Astronomical Twilight 5:19 AM CDT 9:13 PM CDT
Moon 5:01 AM CDT 4:12 PM CDT
Length of Visible Light 13h 31m
Length of Day
12h 31m
Waning Crescent, 13% of the Moon is Illuminated
Mar 27
Waning Crescent
Mar 30
New
Apr 7
First Quarter
Apr 15
Full
Apr 22
Last Quarter

Hourly Weather History & Observations

Time (CDT) Temp. Windchill Dew Point Humidity Pressure Visibility Wind Dir Wind Speed Gust Speed Precip Events Conditions
12:15 AM 38.3 °F 29.0 °F 25.2 °F 59% 29.62 in 10.0 mi SE 17.3 mph 21.9 mph N/A   Overcast
12:35 AM 38.5 °F 29.6 °F 25.5 °F 60% 29.62 in 10.0 mi SE 16.1 mph 24.2 mph N/A   Overcast
12:55 AM 38.3 °F 29.3 °F 26.1 °F 61% 29.61 in 10.0 mi SSE 16.1 mph 21.9 mph N/A   Overcast
1:10 AM 38.7 °F 30.5 °F 26.2 °F 61% 29.61 in 10.0 mi SSE 13.8 mph 21.9 mph N/A   Overcast
1:35 AM 38.7 °F 30.5 °F 27.3 °F 64% 29.61 in 10.0 mi SSE 13.8 mph - N/A   Overcast
1:55 AM 39.2 °F 30.8 °F 28.8 °F 66% 29.62 in 10.0 mi SSE 15.0 mph 20.7 mph N/A   Overcast
2:15 AM 39.4 °F 30.7 °F 30.4 °F 70% 29.62 in 10.0 mi SSE 16.1 mph 21.9 mph N/A   Overcast
2:35 AM 39.7 °F 31.9 °F 31.5 °F 72% 29.61 in 10.0 mi SSE 13.8 mph 23.0 mph N/A   Overcast
2:55 AM 39.2 °F 30.2 °F 32.2 °F 76% 29.61 in 10.0 mi SSE 17.3 mph - N/A   Overcast
3:15 AM 37.9 °F 30.5 °F 32.9 °F 82% 29.61 in 10.0 mi SSE 11.5 mph - N/A   Overcast
3:35 AM 37.6 °F 30.0 °F 33.4 °F 85% 29.60 in 10.0 mi SSE 11.5 mph 17.3 mph N/A   Overcast
3:55 AM 37.6 °F 29.1 °F 34.3 °F 88% 29.59 in 7.0 mi SSE 13.8 mph 18.4 mph N/A   Overcast
4:15 AM 36.9 °F 29.6 °F 36.0 °F 97% 29.59 in 4.0 mi SSE 10.4 mph - N/A Rain Light Rain
4:35 AM 36.7 °F 29.4 °F 36.5 °F 99% 29.58 in 4.0 mi SSE 10.4 mph - N/A Rain Light Rain
4:55 AM 36.5 °F 30.3 °F 36.5 °F 100% 29.58 in 3.0 mi SSE 8.1 mph - N/A Snow Light Snow
5:15 AM 36.9 °F 30.1 °F 36.9 °F 100% 29.57 in 3.0 mi SSE 9.2 mph - N/A Rain Light Rain
5:35 AM 37.2 °F 31.9 °F 37.2 °F 100% 29.57 in 3.0 mi SSE 6.9 mph - N/A Rain Light Rain
5:55 AM 37.0 °F 31.0 °F 37.0 °F 100% 29.56 in 3.0 mi SSE 8.1 mph - N/A Snow Light Snow
6:15 AM 37.2 °F 31.9 °F 37.2 °F 100% 29.56 in 3.0 mi SSE 6.9 mph - N/A Rain Light Rain
6:35 AM 37.4 °F 31.4 °F 37.4 °F 100% 29.56 in 4.0 mi SSE 8.1 mph - N/A Rain Light Rain
6:55 AM 37.4 °F 30.8 °F 37.4 °F 100% 29.56 in 4.0 mi SSE 9.2 mph - N/A Rain Light Rain
7:15 AM 37.0 °F 31.6 °F 37.0 °F 100% 29.56 in 2.5 mi SSE 6.9 mph - N/A Rain Light Rain
7:35 AM 37.4 °F 32.1 °F 37.4 °F 100% 29.56 in 2.5 mi SSE 6.9 mph - N/A Rain Light Rain
7:55 AM 37.4 °F 32.8 °F 37.4 °F 100% 29.56 in 3.0 mi SSE 5.8 mph - N/A Rain Light Rain
8:15 AM 37.6 °F 31.6 °F 37.6 °F 100% 29.56 in 3.0 mi SE 8.1 mph - N/A   Drizzle
8:35 AM 37.4 °F 30.8 °F 37.4 °F 100% 29.55 in 3.0 mi SE 9.2 mph - N/A Rain Light Rain
8:55 AM 37.4 °F 31.4 °F 37.4 °F 100% 29.55 in 3.0 mi SE 8.1 mph - N/A Rain Light Rain
9:15 AM 37.4 °F 31.4 °F 37.4 °F 100% 29.54 in 3.0 mi SE 8.1 mph - N/A Rain Light Rain
9:35 AM 36.9 °F 31.4 °F 36.9 °F 100% 29.54 in 2.5 mi SE 6.9 mph - N/A Rain Light Rain
9:55 AM 37.0 °F 32.4 °F 37.0 °F 100% 29.54 in 3.0 mi SE 5.8 mph - N/A Rain Light Rain
10:15 AM 37.0 °F 31.6 °F 37.0 °F 100% 29.55 in 3.0 mi SE 6.9 mph - N/A Rain Light Rain
10:35 AM 37.4 °F 32.1 °F 37.4 °F 100% 29.55 in 3.0 mi SE 6.9 mph - N/A Rain Light Rain
10:55 AM 37.4 °F 32.8 °F 37.4 °F 100% 29.55 in 2.5 mi SE 5.8 mph - N/A Rain Light Rain
11:15 AM 37.4 °F 32.8 °F 37.4 °F 100% 29.54 in 3.0 mi ESE 5.8 mph - N/A   Overcast
11:35 AM 36.9 °F 31.4 °F 36.9 °F 100% 29.54 in 3.0 mi ESE 6.9 mph - N/A   Overcast
11:55 AM 36.7 °F 31.2 °F 36.7 °F 100% 29.53 in 2.0 mi ESE 6.9 mph - N/A   Overcast
12:15 PM 36.7 °F 31.2 °F 36.7 °F 100% 29.53 in 1.8 mi ESE 6.9 mph - N/A Rain Light Rain
12:35 PM 36.7 °F 32.9 °F 36.7 °F 100% 29.53 in 1.8 mi ESE 4.6 mph - N/A Rain Light Rain
12:55 PM 37.0 °F 32.4 °F 37.0 °F 100% 29.52 in 1.8 mi ESE 5.8 mph - N/A Rain Rain
1:15 PM 36.9 °F 33.1 °F 36.9 °F 100% 29.51 in 1.8 mi East 4.6 mph - N/A Rain Light Rain
1:35 PM 37.4 °F - 37.4 °F 100% 29.50 in 2.0 mi Calm Calm - N/A Rain Rain
1:55 PM 37.4 °F 33.8 °F 37.4 °F 100% 29.51 in 2.0 mi ESE 4.6 mph - 0.01 in Rain Rain
2:15 PM 37.4 °F 33.8 °F 37.4 °F 100% 29.52 in 3.0 mi SE 4.6 mph - 0.03 in Rain Rain
2:35 PM 36.0 °F 31.1 °F 35.8 °F 99% 29.52 in 4.0 mi SE 5.8 mph - 0.08 in Rain Light Rain
2:55 PM 35.4 °F 29.7 °F 35.2 °F 99% 29.52 in 5.0 mi ESE 6.9 mph - 0.11 in Rain Rain
3:15 PM 34.7 °F 30.6 °F 34.5 °F 99% 29.52 in 5.0 mi East 4.6 mph - 0.02 in Rain Light Rain
3:35 PM 33.6 °F 30.6 °F 33.6 °F 100% 29.52 in 2.0 mi North 3.5 mph - 0.04 in Snow Light Snow
3:55 PM 33.1 °F 27.7 °F 33.1 °F 100% 29.53 in 1.2 mi North 5.8 mph - 0.05 in Snow Light Snow
4:15 PM 32.9 °F 28.5 °F 32.9 °F 100% 29.53 in 1.0 mi NNE 4.6 mph - N/A Snow Light Snow
4:35 PM 32.9 °F 29.8 °F 32.9 °F 100% 29.53 in 0.5 mi North 3.5 mph - N/A Snow Light Snow
4:55 PM 32.9 °F 29.8 °F 32.9 °F 100% 29.53 in 0.8 mi North 3.5 mph - N/A Snow Light Snow
5:15 PM 32.7 °F 29.6 °F 32.7 °F 100% 29.53 in 0.5 mi North 3.5 mph - N/A Snow Light Snow
5:35 PM 32.9 °F 28.5 °F 32.9 °F 100% 29.53 in 1.0 mi North 4.6 mph - N/A Snow Light Snow
5:55 PM 32.7 °F 28.3 °F 32.7 °F 100% 29.53 in 0.8 mi North 4.6 mph - N/A Snow Light Snow
6:15 PM 32.9 °F 28.5 °F 32.9 °F 100% 29.54 in 1.2 mi NNW 4.6 mph - N/A Snow Light Snow
6:35 PM 32.7 °F 27.3 °F 32.7 °F 100% 29.55 in 2.0 mi North 5.8 mph - N/A Snow Light Snow
6:55 PM 32.9 °F 26.7 °F 32.9 °F 100% 29.55 in 5.0 mi North 6.9 mph - N/A Snow Light Snow
7:15 PM 32.9 °F 25.9 °F 32.9 °F 100% 29.56 in 7.0 mi North 8.1 mph - N/A Snow Light Snow
7:55 PM 32.5 °F 22.7 °F 32.5 °F 100% 29.59 in 10.0 mi North 13.8 mph 20.7 mph N/A   Overcast
8:15 PM 32.2 °F 23.8 °F 32.0 °F 99% 29.60 in 10.0 mi North 10.4 mph - N/A   Overcast
8:35 PM 32.0 °F 24.8 °F 32.0 °F 100% 29.62 in 7.0 mi North 8.1 mph 16.1 mph N/A   Overcast
8:55 PM 32.0 °F 23.0 °F 31.6 °F 99% 29.64 in 7.0 mi North 11.5 mph - N/A   Overcast
9:15 PM 32.0 °F 22.1 °F 30.9 °F 96% 29.65 in 10.0 mi North 13.8 mph 17.3 mph N/A   Overcast
9:35 PM 31.8 °F 22.3 °F 30.4 °F 94% 29.66 in 10.0 mi North 12.7 mph 19.6 mph N/A   Overcast
9:55 PM 31.5 °F 22.3 °F 29.8 °F 94% 29.68 in 10.0 mi North 11.5 mph 19.6 mph N/A   Overcast
10:15 PM 31.1 °F 22.4 °F 29.3 °F 93% 29.69 in 10.0 mi North 10.4 mph 17.3 mph N/A   Overcast
10:35 PM 30.9 °F 22.2 °F 28.8 °F 92% 29.69 in 10.0 mi North 10.4 mph 16.1 mph N/A   Overcast
10:55 PM 30.7 °F 20.9 °F 28.2 °F 90% 29.71 in 10.0 mi North 12.7 mph 19.6 mph N/A   Overcast
11:15 PM 30.6 °F 21.8 °F 28.0 °F 90% 29.73 in 10.0 mi North 10.4 mph 18.4 mph N/A   Overcast
11:35 PM 30.6 °F 20.7 °F 28.2 °F 91% 29.74 in 10.0 mi North 12.7 mph 18.4 mph N/A   Overcast
11:55 PM 30.2 °F 18.9 °F 28.4 °F 93% 29.75 in 10.0 mi North 16.1 mph 20.7 mph N/A   Overcast